JBU1880 KFLL-KDCA

Flight info

Callsign JBU1880
Flight time 2h 15m
Altitude 37000
Route FEALX2 ETECK GRUBR Y299 SEELO GARIC RANAY TANJA WAVES CAPSS3
Aircraft A320/M-SDE3FGHIRWY/LB1

Departure

Time 2026-05-05 17:26
Airport Fort Lauderdale Hollywood International Airport (KFLL)

Arrival

Time 2026-05-05 19:41
Airport Ronald Reagan Washington National Airport (KDCA)
Time Latitude Longitude Altitude Speed Heading
2026-05-05 17:03 26.06878 -80.14433 12 ft 0 kts
2026-05-05 17:16 26.06871 -80.14433 12 ft 2 kts 360°
2026-05-05 17:16 26.06856 -80.14433 12 ft 2 kts
2026-05-05 17:17 26.06841 -80.14433 12 ft 1 kts
2026-05-05 17:17 26.06832 -80.14433 12 ft 1 kts 342°
2026-05-05 17:17 26.06821 -80.14423 11 ft 2 kts 293°
2026-05-05 17:17 26.06819 -80.14414 11 ft 1 kts 269°
2026-05-05 17:18 26.06819 -80.14419 11 ft 0 kts 278°
2026-05-05 17:18 26.06819 -80.14425 11 ft 0 kts 270°
2026-05-05 17:20 26.06819 -80.14430 11 ft 1 kts 270°
2026-05-05 17:20 26.06819 -80.14454 11 ft 4 kts 270°
2026-05-05 17:20 26.06819 -80.14516 11 ft 10 kts 270°
2026-05-05 17:21 26.06797 -80.14583 12 ft 10 kts 205°
2026-05-05 17:21 26.06766 -80.14645 11 ft 10 kts 270°
2026-05-05 17:21 26.06767 -80.14730 11 ft 11 kts 271°
2026-05-05 17:22 26.06745 -80.14920 11 ft 13 kts 203°
2026-05-05 17:22 26.06693 -80.14984 11 ft 13 kts 271°
2026-05-05 17:22 26.06695 -80.15088 11 ft 13 kts 270°
2026-05-05 17:22 26.06695 -80.15195 11 ft 14 kts 270°
2026-05-05 17:23 26.06696 -80.15305 11 ft 14 kts 270°
2026-05-05 17:23 26.06696 -80.15419 12 ft 14 kts 270°
2026-05-05 17:23 26.06698 -80.15537 11 ft 15 kts 270°
2026-05-05 17:23 26.06698 -80.15654 12 ft 15 kts 270°
2026-05-05 17:24 26.06699 -80.15743 12 ft 8 kts 270°
2026-05-05 17:24 26.06687 -80.15810 12 ft 9 kts 227°
2026-05-05 17:24 26.06620 -80.15820 11 ft 10 kts 164°
2026-05-05 17:24 26.06588 -80.15756 11 ft 11 kts 88°
2026-05-05 17:25 26.06588 -80.15621 12 ft 40 kts 90°
2026-05-05 17:25 26.06587 -80.15298 12 ft 84 kts 91°
2026-05-05 17:25 26.06579 -80.14038 13 ft 156 kts 90°
2026-05-05 17:25 26.06579 -80.12802 489 ft 157 kts 89°
2026-05-05 17:26 26.06576 -80.11588 948 ft 165 kts 89°
2026-05-05 17:26 26.06586 -80.10294 1482 ft 169 kts 88°
2026-05-05 17:26 26.06610 -80.08985 1959 ft 175 kts 88°
2026-05-05 17:26 26.06637 -80.07564 2250 ft 190 kts 88°
2026-05-05 17:27 26.06663 -80.06017 2495 ft 211 kts 88°
2026-05-05 17:27 26.06688 -80.04317 2837 ft 228 kts 88°
2026-05-05 17:27 26.06715 -80.02502 3189 ft 245 kts 86°
2026-05-05 17:27 26.07063 -80.00597 3534 ft 262 kts 65°
2026-05-05 17:28 26.08082 -79.98877 4034 ft 272 kts 50°
2026-05-05 17:28 26.09306 -79.97263 4730 ft 276 kts 49°
2026-05-05 17:28 26.10554 -79.95628 5449 ft 279 kts 49°
2026-05-05 17:28 26.11794 -79.93983 6151 ft 283 kts 49°
2026-05-05 17:29 26.13059 -79.92285 6874 ft 287 kts 49°
2026-05-05 17:29 26.14340 -79.90556 7598 ft 291 kts 49°
2026-05-05 17:29 26.15615 -79.88818 8298 ft 295 kts 50°
2026-05-05 17:29 26.16850 -79.86987 8989 ft 300 kts 52°
2026-05-05 17:30 26.18081 -79.85101 9689 ft 303 kts 52°
2026-05-05 17:30 26.19324 -79.83187 10390 ft 307 kts 52°
2026-05-05 17:30 26.20589 -79.81241 10749 ft 322 kts 52°
2026-05-05 17:30 26.21943 -79.79169 11051 ft 339 kts 52°
2026-05-05 17:31 26.23364 -79.76990 11367 ft 356 kts 52°
2026-05-05 17:31 26.24849 -79.74712 11641 ft 372 kts 52°
2026-05-05 17:31 26.26398 -79.72333 11931 ft 385 kts 52°
2026-05-05 17:31 26.27987 -79.69898 12443 ft 391 kts 51°
2026-05-05 17:32 26.29683 -79.67539 13045 ft 393 kts 46°
2026-05-05 17:32 26.31534 -79.65282 13607 ft 395 kts 43°
2026-05-05 17:32 26.33429 -79.63098 14169 ft 398 kts 42°
2026-05-05 17:32 26.35380 -79.60868 14753 ft 400 kts 42°
2026-05-05 17:33 26.37312 -79.58658 15309 ft 402 kts 42°
2026-05-05 17:33 26.39273 -79.56408 15847 ft 405 kts 42°
2026-05-05 17:33 26.41239 -79.54148 16366 ft 408 kts 41°
2026-05-05 17:33 26.43203 -79.51886 16871 ft 410 kts 41°
2026-05-05 17:34 26.45198 -79.49586 17365 ft 413 kts 41°
2026-05-05 17:34 26.47202 -79.47275 17840 ft 416 kts 41°
2026-05-05 17:34 26.49207 -79.44958 18294 ft 420 kts 41°
2026-05-05 17:34 26.51240 -79.42612 18718 ft 423 kts 40°
2026-05-05 17:35 26.53309 -79.40266 19160 ft 425 kts 38°
2026-05-05 17:35 26.55538 -79.38091 19595 ft 424 kts 32°
2026-05-05 17:35 26.57919 -79.36159 20045 ft 423 kts 27°
2026-05-05 17:35 26.60407 -79.34418 20479 ft 424 kts 25°
2026-05-05 17:36 26.62929 -79.32713 20884 ft 426 kts 25°
2026-05-05 17:36 26.65473 -79.31000 21278 ft 429 kts 25°
2026-05-05 17:36 26.68062 -79.29252 21657 ft 432 kts 25°
2026-05-05 17:36 26.70614 -79.27524 22036 ft 434 kts 25°
2026-05-05 17:37 26.73226 -79.25748 22419 ft 436 kts 24°
2026-05-05 17:37 26.74957 -79.24571 22668 ft 438 kts 24°
2026-05-05 17:37 26.78401 -79.22227 23185 ft 441 kts 24°
2026-05-05 17:37 26.81036 -79.20432 23558 ft 443 kts 24°
2026-05-05 17:38 26.83666 -79.18638 23962 ft 444 kts 24°
2026-05-05 17:38 26.86325 -79.16820 24339 ft 446 kts 24°
2026-05-05 17:38 26.88976 -79.15009 24694 ft 448 kts 24°
2026-05-05 17:38 26.91646 -79.13180 25058 ft 450 kts 24°
2026-05-05 17:39 26.94301 -79.11366 25394 ft 452 kts 24°
2026-05-05 17:39 26.96995 -79.09523 25738 ft 454 kts 24°
2026-05-05 17:39 26.99704 -79.07665 26071 ft 456 kts 24°
2026-05-05 17:39 27.02424 -79.05800 26414 ft 457 kts 24°
2026-05-05 17:40 27.05138 -79.03938 26730 ft 459 kts 24°
2026-05-05 17:40 27.07873 -79.02060 27008 ft 461 kts 24°
2026-05-05 17:40 27.10582 -79.00200 27289 ft 463 kts 24°
2026-05-05 17:40 27.13349 -78.98299 27607 ft 463 kts 24°
2026-05-05 17:41 27.16094 -78.96410 27940 ft 463 kts 24°
2026-05-05 17:41 27.18850 -78.94512 28307 ft 462 kts 24°
2026-05-05 17:41 27.21572 -78.92635 28667 ft 461 kts 24°
2026-05-05 17:41 27.24290 -78.90762 29096 ft 459 kts 24°
2026-05-05 17:42 27.27004 -78.88888 29525 ft 456 kts 24°
2026-05-05 17:42 27.29679 -78.87039 29877 ft 454 kts 23°
2026-05-05 17:42 27.32382 -78.85174 30260 ft 452 kts 23°
2026-05-05 17:42 27.35104 -78.83434 30691 ft 443 kts 19°
2026-05-05 17:43 27.37845 -78.81967 31109 ft 435 kts 14°
2026-05-05 17:43 27.40652 -78.80730 31538 ft 427 kts 11°
2026-05-05 17:43 27.43434 -78.79754 31928 ft 419 kts
2026-05-05 17:43 27.46229 -78.79002 32278 ft 412 kts
2026-05-05 17:44 27.49042 -78.78466 32648 ft 405 kts
2026-05-05 17:44 27.51838 -78.78043 33019 ft 401 kts 359°
2026-05-05 17:44 27.54566 -78.77640 33372 ft 397 kts 359°
2026-05-05 17:44 27.57313 -78.77238 33634 ft 397 kts 359°
2026-05-05 17:45 27.60068 -78.76839 33811 ft 397 kts 359°
2026-05-05 17:45 27.62795 -78.76442 33996 ft 398 kts 359°
2026-05-05 17:45 27.65556 -78.76041 34189 ft 397 kts 359°
2026-05-05 17:45 27.68286 -78.75639 34367 ft 397 kts 359°
2026-05-05 17:46 27.71043 -78.75236 34551 ft 397 kts 359°
2026-05-05 17:46 27.73770 -78.74834 34681 ft 398 kts 359°
2026-05-05 17:46 27.76529 -78.74432 34798 ft 398 kts 359°
2026-05-05 17:46 27.79267 -78.74031 34924 ft 399 kts 358°
2026-05-05 17:47 27.82046 -78.73623 35050 ft 399 kts 359°
2026-05-05 17:47 27.87552 -78.72814 35061 ft 400 kts 359°
2026-05-05 17:48 27.93070 -78.72001 35063 ft 399 kts 358°
2026-05-05 17:48 27.98562 -78.71188 35066 ft 399 kts 358°
2026-05-05 17:49 28.04058 -78.70378 35064 ft 397 kts 358°
2026-05-05 17:49 28.09525 -78.69569 35069 ft 397 kts 358°
2026-05-05 17:50 28.15009 -78.68761 35069 ft 397 kts 358°
2026-05-05 17:50 28.20502 -78.67950 35072 ft 396 kts 358°
2026-05-05 17:51 28.25955 -78.67140 35072 ft 396 kts 358°
2026-05-05 17:51 28.31425 -78.66325 35071 ft 397 kts 358°
2026-05-05 17:52 28.36894 -78.65516 35077 ft 396 kts 358°
2026-05-05 17:52 28.42337 -78.64709 35074 ft 394 kts 358°
2026-05-05 17:53 28.47800 -78.63894 35075 ft 396 kts 358°
2026-05-05 17:53 28.53271 -78.63081 35076 ft 395 kts 358°
2026-05-05 17:54 28.58695 -78.62271 35073 ft 395 kts 358°
2026-05-05 17:54 28.64131 -78.61462 35077 ft 394 kts 358°
2026-05-05 17:55 28.69610 -78.60641 35078 ft 394 kts 358°
2026-05-05 17:55 28.75029 -78.59830 35078 ft 393 kts 358°
2026-05-05 17:56 28.80477 -78.59015 35077 ft 395 kts 357°
2026-05-05 17:56 28.85926 -78.58199 35086 ft 395 kts 358°
2026-05-05 17:57 28.91369 -78.57385 35085 ft 393 kts 358°
2026-05-05 17:57 28.96792 -78.56568 35085 ft 394 kts 358°
2026-05-05 17:58 29.02243 -78.55747 35090 ft 395 kts 357°
2026-05-05 17:58 29.07712 -78.54929 35086 ft 393 kts 358°
2026-05-05 17:59 29.13115 -78.54112 35093 ft 393 kts 357°
2026-05-05 17:59 29.18539 -78.53291 35091 ft 392 kts 357°
2026-05-05 18:00 29.23946 -78.52478 35088 ft 393 kts 357°
2026-05-05 18:00 29.29386 -78.51657 35089 ft 392 kts 358°
2026-05-05 18:01 29.34790 -78.50836 35092 ft 392 kts 357°
2026-05-05 18:01 29.40195 -78.50017 35095 ft 393 kts 358°
2026-05-05 18:02 29.45635 -78.49332 35098 ft 389 kts 354°
2026-05-05 18:02 29.50994 -78.49208 35095 ft 384 kts 350°
2026-05-05 18:03 29.56302 -78.49606 35104 ft 380 kts 347°
2026-05-05 18:03 29.61568 -78.50153 35113 ft 380 kts 347°
2026-05-05 18:04 29.66831 -78.50713 35110 ft 381 kts 347°
2026-05-05 18:04 29.72111 -78.51282 35116 ft 382 kts 346°
2026-05-05 18:05 29.77406 -78.51852 35114 ft 381 kts 346°
2026-05-05 18:05 29.82681 -78.52425 35112 ft 380 kts 347°
2026-05-05 18:06 29.87955 -78.52996 35125 ft 380 kts 347°
2026-05-05 18:06 29.93236 -78.53571 35116 ft 381 kts 347°
2026-05-05 18:07 29.98499 -78.54139 35117 ft 380 kts 347°
2026-05-05 18:07 30.03776 -78.54715 35109 ft 380 kts 347°
2026-05-05 18:08 30.09042 -78.55287 35110 ft 382 kts 348°
2026-05-05 18:08 30.14368 -78.55523 35113 ft 386 kts 352°
2026-05-05 18:09 30.19794 -78.55186 35113 ft 392 kts 356°
2026-05-05 18:09 30.25196 -78.54462 35116 ft 392 kts 358°
2026-05-05 18:10 30.30607 -78.53694 35108 ft 393 kts 358°
2026-05-05 18:10 30.36032 -78.52917 35116 ft 394 kts 358°
2026-05-05 18:11 30.41502 -78.52132 35114 ft 393 kts 357°
2026-05-05 18:11 30.46920 -78.51283 35122 ft 393 kts 358°
2026-05-05 18:12 30.52335 -78.50402 35125 ft 393 kts 359°
2026-05-05 18:12 30.57769 -78.49518 35112 ft 395 kts 358°
2026-05-05 18:13 30.63228 -78.48632 35128 ft 396 kts 359°
2026-05-05 18:13 30.68672 -78.47746 35118 ft 395 kts 359°
2026-05-05 18:14 30.74113 -78.46858 35132 ft 396 kts 358°
2026-05-05 18:14 30.79553 -78.45976 35121 ft 393 kts 359°
2026-05-05 18:15 30.85007 -78.45085 35131 ft 395 kts 358°
2026-05-05 18:15 30.90464 -78.44197 35134 ft 396 kts 358°
2026-05-05 18:16 30.95892 -78.43313 35140 ft 395 kts 359°
2026-05-05 18:16 31.01360 -78.42418 35132 ft 396 kts 359°
2026-05-05 18:17 31.06798 -78.41528 35131 ft 394 kts 359°
2026-05-05 18:17 31.12248 -78.40632 35133 ft 397 kts 359°
2026-05-05 18:18 31.17735 -78.39735 35131 ft 395 kts 359°
2026-05-05 18:18 31.23181 -78.38840 35120 ft 395 kts 359°
2026-05-05 18:19 31.28626 -78.37946 35133 ft 396 kts 359°
2026-05-05 18:19 31.34106 -78.37039 35118 ft 397 kts 359°
2026-05-05 18:20 31.39573 -78.36144 35123 ft 397 kts 359°
2026-05-05 18:20 31.45037 -78.35242 35124 ft 396 kts 359°
2026-05-05 18:21 31.50472 -78.34340 35123 ft 396 kts 360°
2026-05-05 18:21 31.55921 -78.33439 35125 ft 396 kts 359°
2026-05-05 18:22 31.61398 -78.32529 35127 ft 399 kts 359°
2026-05-05 18:22 31.66886 -78.31622 35131 ft 397 kts 359°
2026-05-05 18:23 31.72380 -78.30708 35119 ft 397 kts 360°
2026-05-05 18:23 31.77848 -78.29800 35128 ft 398 kts 360°
2026-05-05 18:24 31.83305 -78.28893 35128 ft 397 kts 360°
2026-05-05 18:24 31.88798 -78.27976 35125 ft 399 kts
2026-05-05 18:25 31.94298 -78.27056 35125 ft 399 kts
2026-05-05 18:25 31.99767 -78.26143 35130 ft 396 kts 360°
2026-05-05 18:26 32.05238 -78.25272 35129 ft 397 kts 359°
2026-05-05 18:26 32.10724 -78.24481 35127 ft 398 kts 359°
2026-05-05 18:27 32.16246 -78.23689 35135 ft 397 kts 359°
2026-05-05 18:27 32.21732 -78.22887 35128 ft 397 kts 359°
2026-05-05 18:28 32.29959 -78.21688 35136 ft 397 kts 360°
2026-05-05 18:28 32.35451 -78.20882 35130 ft 398 kts 359°
2026-05-05 18:29 32.40931 -78.20077 35121 ft 398 kts 359°
2026-05-05 18:29 32.46399 -78.19272 35130 ft 397 kts 359°
2026-05-05 18:30 32.51896 -78.18465 35130 ft 399 kts 360°
2026-05-05 18:30 32.57422 -78.17650 35126 ft 399 kts 359°
2026-05-05 18:31 32.62941 -78.16837 35134 ft 399 kts 360°
2026-05-05 18:31 32.68432 -78.16029 35121 ft 399 kts 359°
2026-05-05 18:32 32.73976 -78.15210 35132 ft 399 kts 359°
2026-05-05 18:32 32.79505 -78.14390 35130 ft 400 kts 359°
2026-05-05 18:33 32.85014 -78.13574 35133 ft 402 kts 359°
2026-05-05 18:33 32.90579 -78.12749 35129 ft 401 kts 359°
2026-05-05 18:34 32.96110 -78.11930 35140 ft 400 kts 360°
2026-05-05 18:34 33.01645 -78.11105 35135 ft 401 kts
2026-05-05 18:35 33.07175 -78.10281 35130 ft 400 kts 360°
2026-05-05 18:35 33.12717 -78.09454 35135 ft 401 kts 360°
2026-05-05 18:36 33.18253 -78.08625 35132 ft 401 kts 360°
2026-05-05 18:36 33.23796 -78.07797 35130 ft 401 kts 360°
2026-05-05 18:37 33.29316 -78.06970 35132 ft 401 kts 360°
2026-05-05 18:37 33.34857 -78.06138 35128 ft 401 kts 360°
2026-05-05 18:38 33.40403 -78.05308 35136 ft 400 kts
2026-05-05 18:38 33.45920 -78.04479 35129 ft 400 kts
2026-05-05 18:39 33.51459 -78.03645 35129 ft 403 kts
2026-05-05 18:39 33.57005 -78.02810 35123 ft 401 kts 360°
2026-05-05 18:40 33.62544 -78.01974 35133 ft 402 kts
2026-05-05 18:40 33.68120 -78.01129 35129 ft 403 kts 360°
2026-05-05 18:41 33.73645 -78.00296 35128 ft 402 kts
2026-05-05 18:41 33.79231 -77.99449 35132 ft 403 kts
2026-05-05 18:42 33.84788 -77.98605 35135 ft 402 kts
2026-05-05 18:42 33.90316 -77.97877 35136 ft 399 kts 359°
2026-05-05 18:43 33.95863 -77.97269 35140 ft 399 kts 359°
2026-05-05 18:43 34.01385 -77.96670 35137 ft 400 kts 358°
2026-05-05 18:44 34.06936 -77.96064 35377 ft 400 kts 358°
2026-05-05 18:44 34.09731 -77.95756 35525 ft 400 kts 358°
2026-05-05 18:44 34.12513 -77.95451 35610 ft 401 kts 358°
2026-05-05 18:45 34.15279 -77.95150 35754 ft 401 kts 359°
2026-05-05 18:45 34.18065 -77.94843 35937 ft 400 kts 358°
2026-05-05 18:45 34.20822 -77.94540 36055 ft 400 kts 358°
2026-05-05 18:45 34.23629 -77.94233 36148 ft 401 kts 359°
2026-05-05 18:46 34.26381 -77.93930 36258 ft 401 kts 359°
2026-05-05 18:46 34.29166 -77.93623 36367 ft 401 kts 358°
2026-05-05 18:46 34.31976 -77.93314 36496 ft 401 kts 359°
2026-05-05 18:46 34.34738 -77.93007 36604 ft 401 kts 359°
2026-05-05 18:47 34.40300 -77.92394 36771 ft 402 kts 358°
2026-05-05 18:47 34.45867 -77.91779 36944 ft 402 kts 359°
2026-05-05 18:48 34.51463 -77.91161 37092 ft 402 kts 359°
2026-05-05 18:48 34.57045 -77.90542 37110 ft 404 kts 359°
2026-05-05 18:49 34.62637 -77.89922 37114 ft 403 kts 359°
2026-05-05 18:49 34.68216 -77.89299 37110 ft 403 kts 359°
2026-05-05 18:50 34.73808 -77.88681 37119 ft 403 kts 359°
2026-05-05 18:50 34.79407 -77.88054 37106 ft 404 kts 359°
2026-05-05 18:51 34.85000 -77.87431 37108 ft 403 kts 359°
2026-05-05 18:51 34.90565 -77.86809 37110 ft 403 kts 359°
2026-05-05 18:52 34.96136 -77.86188 37107 ft 403 kts 359°
2026-05-05 18:52 35.01726 -77.85562 37103 ft 403 kts 359°
2026-05-05 18:53 35.07306 -77.84936 37090 ft 403 kts 359°
2026-05-05 18:53 35.12880 -77.84310 37107 ft 403 kts 359°
2026-05-05 18:54 35.18483 -77.83680 37099 ft 404 kts 359°
2026-05-05 18:54 35.24073 -77.83051 37102 ft 402 kts 359°
2026-05-05 18:55 35.29650 -77.82422 37107 ft 405 kts 359°
2026-05-05 18:55 35.35257 -77.81785 37091 ft 405 kts 359°
2026-05-05 18:56 35.40854 -77.81154 37083 ft 405 kts 359°
2026-05-05 18:56 35.46483 -77.80414 37099 ft 406 kts
2026-05-05 18:57 35.52076 -77.79447 37098 ft 408 kts
2026-05-05 18:57 35.57706 -77.78464 37082 ft 409 kts
2026-05-05 18:58 35.63305 -77.77487 37070 ft 410 kts
2026-05-05 18:58 35.68944 -77.76502 37069 ft 409 kts
2026-05-05 18:59 35.74602 -77.75512 37076 ft 411 kts
2026-05-05 18:59 35.80238 -77.74524 37067 ft 410 kts
2026-05-05 19:00 35.85858 -77.73536 37073 ft 410 kts
2026-05-05 19:00 35.91531 -77.72543 37082 ft 412 kts
2026-05-05 19:01 35.97204 -77.71545 37068 ft 414 kts
2026-05-05 19:01 36.00062 -77.71040 36805 ft 414 kts
2026-05-05 19:01 36.02891 -77.70541 36111 ft 414 kts
2026-05-05 19:02 36.05744 -77.70039 35380 ft 417 kts
2026-05-05 19:02 36.08638 -77.69528 35064 ft 421 kts
2026-05-05 19:02 36.14448 -77.68504 35051 ft 423 kts
2026-05-05 19:03 36.20272 -77.67471 35047 ft 423 kts
2026-05-05 19:03 36.26107 -77.66437 35048 ft 423 kts
2026-05-05 19:04 36.31933 -77.65402 35044 ft 423 kts
2026-05-05 19:04 36.37737 -77.64369 35046 ft 423 kts
2026-05-05 19:05 36.43583 -77.63328 35045 ft 423 kts
2026-05-05 19:05 36.49395 -77.62291 35045 ft 424 kts
2026-05-05 19:06 36.55287 -77.61323 35031 ft 425 kts
2026-05-05 19:06 36.61125 -77.60413 35034 ft 425 kts
2026-05-05 19:07 36.66991 -77.59491 35039 ft 424 kts
2026-05-05 19:07 36.72849 -77.58566 35037 ft 424 kts
2026-05-05 19:08 36.78700 -77.57639 35031 ft 424 kts
2026-05-05 19:08 36.84562 -77.56709 35031 ft 425 kts
2026-05-05 19:09 36.90449 -77.55770 35028 ft 426 kts
2026-05-05 19:09 36.96326 -77.54836 35016 ft 426 kts
2026-05-05 19:10 37.02215 -77.53893 35003 ft 427 kts
2026-05-05 19:10 37.08100 -77.52952 35025 ft 426 kts
2026-05-05 19:11 37.13963 -77.52012 35024 ft 427 kts
2026-05-05 19:11 37.19869 -77.51065 35011 ft 429 kts
2026-05-05 19:12 37.25773 -77.50114 35022 ft 428 kts
2026-05-05 19:12 37.31694 -77.49161 35009 ft 430 kts
2026-05-05 19:13 37.37607 -77.48209 35003 ft 429 kts
2026-05-05 19:13 37.43514 -77.47253 34992 ft 429 kts
2026-05-05 19:14 37.49447 -77.46292 34865 ft 423 kts
2026-05-05 19:14 37.52306 -77.45824 34038 ft 418 kts 360°
2026-05-05 19:14 37.55194 -77.45361 32497 ft 424 kts
2026-05-05 19:15 37.58128 -77.44856 30511 ft 440 kts
2026-05-05 19:15 37.61135 -77.44090 28417 ft 455 kts
2026-05-05 19:15 37.64232 -77.43153 26834 ft 475 kts 10°
2026-05-05 19:15 37.67448 -77.42147 25294 ft 484 kts 11°
2026-05-05 19:16 37.70701 -77.41124 23612 ft 483 kts 11°
2026-05-05 19:16 37.73926 -77.40112 21764 ft 479 kts 11°
2026-05-05 19:16 37.77061 -77.39132 20641 ft 458 kts 10°
2026-05-05 19:16 37.80063 -77.38197 19423 ft 445 kts 10°
2026-05-05 19:17 37.83007 -77.37284 18432 ft 427 kts 10°
2026-05-05 19:17 37.85822 -77.36414 17668 ft 407 kts
2026-05-05 19:17 37.88512 -77.35579 17167 ft 384 kts
2026-05-05 19:17 37.91023 -77.34800 16885 ft 367 kts
2026-05-05 19:18 37.93524 -77.34037 16898 ft 370 kts
2026-05-05 19:18 37.96032 -77.33273 16913 ft 370 kts
2026-05-05 19:18 37.98541 -77.32504 16864 ft 371 kts
2026-05-05 19:18 38.01033 -77.31739 16395 ft 371 kts
2026-05-05 19:19 38.03523 -77.30970 15930 ft 369 kts
2026-05-05 19:19 38.06021 -77.30199 15475 ft 366 kts
2026-05-05 19:19 38.08496 -77.29430 15030 ft 364 kts
2026-05-05 19:19 38.10918 -77.28670 14598 ft 362 kts
2026-05-05 19:20 38.13365 -77.27899 14162 ft 360 kts
2026-05-05 19:20 38.15789 -77.27137 13738 ft 357 kts
2026-05-05 19:20 38.18182 -77.26383 13318 ft 355 kts
2026-05-05 19:20 38.20586 -77.25597 12910 ft 355 kts 11°
2026-05-05 19:21 38.22950 -77.24725 12870 ft 360 kts 12°
2026-05-05 19:21 38.25373 -77.23805 12869 ft 360 kts 12°
2026-05-05 19:21 38.27752 -77.22897 12650 ft 361 kts 12°
2026-05-05 19:21 38.30168 -77.21979 12199 ft 360 kts 12°
2026-05-05 19:22 38.32563 -77.21069 11772 ft 358 kts 12°
2026-05-05 19:22 38.34919 -77.20176 11358 ft 356 kts 13°
2026-05-05 19:22 38.37294 -77.19275 10963 ft 353 kts 12°
2026-05-05 19:22 38.39636 -77.18375 10930 ft 355 kts 13°
2026-05-05 19:23 38.42008 -77.17459 10960 ft 356 kts 12°
2026-05-05 19:23 38.44388 -77.16541 10981 ft 357 kts 12°
2026-05-05 19:23 38.46776 -77.15617 10994 ft 356 kts 12°
2026-05-05 19:23 38.49133 -77.14705 10753 ft 358 kts 13°
2026-05-05 19:24 38.51508 -77.13789 10353 ft 355 kts 13°
2026-05-05 19:24 38.53860 -77.12873 10149 ft 344 kts 13°
2026-05-05 19:24 38.56100 -77.12002 10049 ft 331 kts 13°
2026-05-05 19:24 38.58251 -77.11166 10013 ft 317 kts 12°
2026-05-05 19:25 38.60383 -77.10344 10007 ft 318 kts 12°
2026-05-05 19:25 38.62508 -77.09532 9653 ft 320 kts 12°
2026-05-05 19:25 38.64631 -77.08718 9272 ft 319 kts 12°
2026-05-05 19:25 38.66769 -77.07895 8911 ft 317 kts 13°
2026-05-05 19:26 38.68898 -77.07211 8579 ft 312 kts
2026-05-05 19:26 38.71010 -77.06845 8263 ft 306 kts
2026-05-05 19:26 38.73101 -77.06632 7948 ft 302 kts 359°
2026-05-05 19:26 38.75205 -77.06461 7627 ft 298 kts 355°
2026-05-05 19:27 38.77193 -77.06866 7301 ft 284 kts 332°
2026-05-05 19:27 38.78889 -77.08037 6994 ft 274 kts 321°
2026-05-05 19:27 38.80459 -77.09380 6680 ft 271 kts 320°
2026-05-05 19:27 38.82025 -77.10737 6367 ft 270 kts 319°
2026-05-05 19:28 38.83508 -77.12186 6061 ft 268 kts 314°
2026-05-05 19:28 38.84878 -77.13795 5752 ft 266 kts 310°
2026-05-05 19:28 38.86194 -77.15442 5441 ft 264 kts 310°
2026-05-05 19:28 38.87517 -77.17069 5130 ft 265 kts 315°
2026-05-05 19:29 38.89184 -77.18088 4799 ft 276 kts 349°
2026-05-05 19:29 38.91098 -77.17732 4483 ft 279 kts 26°
2026-05-05 19:29 38.92516 -77.16122 4175 ft 277 kts 60°
2026-05-05 19:29 38.93152 -77.13849 3867 ft 272 kts 89°
2026-05-05 19:30 38.92920 -77.11503 3533 ft 258 kts 120°
2026-05-05 19:30 38.91956 -77.09598 2828 ft 266 kts 133°
2026-05-05 19:30 38.90842 -77.07713 1779 ft 266 kts 132°
2026-05-05 19:30 38.89664 -77.06039 1036 ft 241 kts 148°
2026-05-05 19:31 38.88357 -77.04848 595 ft 218 kts 149°
2026-05-05 19:31 38.87125 -77.03984 303 ft 185 kts 172°
2026-05-05 19:31 38.85966 -77.03848 342 ft 153 kts 177°
2026-05-05 19:31 38.84893 -77.03724 849 ft 162 kts 179°
2026-05-05 19:32 38.83723 -77.03632 1300 ft 171 kts 181°
2026-05-05 19:32 38.82520 -77.03558 1616 ft 177 kts 182°
2026-05-05 19:32 38.81284 -77.03849 1823 ft 186 kts 212°
2026-05-05 19:32 38.80454 -77.05143 2052 ft 203 kts 248°
2026-05-05 19:33 38.80179 -77.06995 2410 ft 219 kts 260°
2026-05-05 19:33 38.80090 -77.08950 2798 ft 220 kts 263°
2026-05-05 19:33 38.80011 -77.10889 2850 ft 215 kts 263°
2026-05-05 19:33 38.79944 -77.12794 2942 ft 215 kts 263°
2026-05-05 19:34 38.79880 -77.14700 2961 ft 216 kts 263°
2026-05-05 19:34 38.79792 -77.16607 2916 ft 207 kts 261°
2026-05-05 19:34 38.79671 -77.18321 2944 ft 191 kts 264°
2026-05-05 19:35 38.81038 -77.20972 2973 ft 204 kts 335°
2026-05-05 19:35 38.82450 -77.21382 3003 ft 209 kts 348°
2026-05-05 19:35 38.83922 -77.21315 2997 ft 214 kts
2026-05-05 19:35 38.85372 -77.20953 2995 ft 215 kts 12°
2026-05-05 19:36 38.86770 -77.20186 2994 ft 218 kts 30°
2026-05-05 19:36 38.88052 -77.19144 2823 ft 220 kts 33°
2026-05-05 19:36 38.89320 -77.18074 2593 ft 217 kts 32°
2026-05-05 19:36 38.90571 -77.17060 2430 ft 208 kts 30°
2026-05-05 19:37 38.91795 -77.16110 2190 ft 204 kts 30°
2026-05-05 19:37 38.92994 -77.15198 2005 ft 195 kts 29°
2026-05-05 19:37 38.94150 -77.14273 2016 ft 194 kts 40°
2026-05-05 19:37 38.94791 -77.12833 1978 ft 186 kts 94°
2026-05-05 19:38 38.94409 -77.11404 1862 ft 160 kts 144°
2026-05-05 19:38 38.93573 -77.10667 1666 ft 139 kts 159°
2026-05-05 19:38 38.92704 -77.10188 1431 ft 132 kts 174°
2026-05-05 19:38 38.91814 -77.09886 1200 ft 135 kts 161°
2026-05-05 19:39 38.91055 -77.09134 1012 ft 142 kts 141°
2026-05-05 19:39 38.90558 -77.08015 838 ft 149 kts 117°
2026-05-05 19:39 38.90132 -77.06819 715 ft 140 kts 140°
2026-05-05 19:39 38.89427 -77.06034 625 ft 136 kts 149°
2026-05-05 19:40 38.88684 -77.05265 580 ft 137 kts 148°
2026-05-05 19:40 38.87946 -77.04502 390 ft 135 kts 152°
2026-05-05 19:40 38.87116 -77.04014 212 ft 129 kts 172°
2026-05-05 19:40 38.86235 -77.03881 69 ft 125 kts 181°
2026-05-05 19:41 38.85453 -77.03809 24 ft 79 kts 174°
2026-05-05 19:41 38.85165 -77.03822 27 ft 15 kts 217°
2026-05-05 19:41 38.85116 -77.03877 26 ft 0 kts 221°
2026-05-05 19:41 38.85114 -77.03879 26 ft 0 kts 221°
2026-05-05 19:42 38.85107 -77.03890 26 ft 2 kts 244°
2026-05-05 19:42 38.85119 -77.03913 26 ft 5 kts 323°
2026-05-05 19:42 38.85148 -77.03947 26 ft 6 kts 286°
2026-05-05 19:42 38.85151 -77.03989 26 ft 2 kts 333°
2026-05-05 19:43 38.85184 -77.03986 27 ft 5 kts
2026-05-05 19:43 38.85230 -77.03985 27 ft 7 kts 358°
2026-05-05 19:43 38.85286 -77.03989 27 ft 8 kts 354°
2026-05-05 19:43 38.85327 -77.04032 27 ft 7 kts 280°
2026-05-05 19:44 38.85321 -77.04082 28 ft 4 kts 255°
2026-05-05 19:44 38.85315 -77.04109 29 ft 2 kts 252°
2026-05-05 19:44 38.85309 -77.04136 29 ft 3 kts 252°
2026-05-05 19:44 38.85313 -77.04166 30 ft 4 kts 311°
2026-05-05 19:45 38.85338 -77.04188 31 ft 4 kts 329°
2026-05-05 19:45 38.85355 -77.04200 31 ft 0 kts 330°